Location: Austin
(30.3000°N, 97.7500°W)
Time: 22:16:51
(UTC-05:00)

Intercosmos 24 - Pass Details

Date: 05 September 2024
Orbit: 497 x 2362 km, 82.6° (Epoch: 14 September)

Event Time Altitude Azimuth Distance (km) Brightness Sun altitude
Rises 20:32:44 0° 2° (N) 2,588 7.4 -10.3°
Reaches altitude 10° 20:34:46 10° 8° (N) 1,719 6.4 -10.7°
Maximum altitude 20:38:14 47° 84° (E) 737 4.1 -11.5°
Drops below altitude 10° 20:42:24 10° 159° (SSE) 2,066 6.4 -12.3°
Sets 20:45:03 0° 164° (SSE) 3,189 7.4 -12.9°
